Location: Evergreen Manor
(41.4083°N, 81.4939°W)
Time: 22:51:12
(UTC+00:00)

Okean 3 - Pass Details

Date: 11 December 2019
Orbit: 577 x 600 km, 82.5° (Epoch: 19 January)

Event Time Altitude Azimuth Distance (km) Brightness Sun altitude
Exits shadow 10:58:31 - 358° (N) 2,586 6.6 -18.7°
Reaches altitude 10° 11:00:14 10° 3° (N) 1,903 5.9 -18.4°
Maximum altitude 11:04:19 51° 79° (E) 739 4.3 -17.6°
Drops below altitude 10° 11:08:24 10° 156° (SSE) 1,899 6.6 -16.9°
Sets 11:10:39 0° 161° (SSE) 2,798 7.4 -16.5°
